Location: Unspecified
(0.0000°N, 0.0000°E)
Time: 12:55:34
(UTC+00:00)

S-56A Canister/Altair - Pass Details

Date: 08 December 2023
Orbit: 640 x 2488 km, 38.9° (Epoch: 24 February)

Event Time Altitude Azimuth Distance (km) Brightness Sun altitude
Rises 22:20:34 0° 248° (WSW) 5,143 12.2 -58.2°
Reaches altitude 10° 22:27:35 10° 219° (SW) 4,600 11.8 -59.4°
Maximum altitude 22:31:36 12° 200° (SSW) 4,653 11.8 -60.0°
Drops below altitude 10° 22:35:53 10° 182° (S) 4,969 11.9 -60.7°
Sets 22:44:41 0° 154° (SSE) 6,158 12.3 -62.0°
